TimeEDT,TemperatureF,Dew PointF,Humidity,Sea Level PressureIn,VisibilityMPH,Wind Direction,Wind SpeedMPH,Gust SpeedMPH,PrecipitationIn,Events,Conditions,WindDirDegrees,DateUTC
12:53 AM,37.0,23.0,57,30.24,10.0,Calm,Calm,-,N/A,,Clear,0,2013-03-28 04:53:00
1:53 AM,34.0,21.9,61,30.24,10.0,Calm,Calm,-,N/A,,Clear,0,2013-03-28 05:53:00
2:53 AM,33.1,23.0,66,30.24,10.0,Calm,Calm,-,N/A,,Clear,0,2013-03-28 06:53:00
3:53 AM,33.1,23.0,66,30.24,10.0,Calm,Calm,-,N/A,,Clear,0,2013-03-28 07:53:00
4:53 AM,35.1,21.9,59,30.24,10.0,North,3.5,-,N/A,,Clear,350,2013-03-28 08:53:00
5:53 AM,34.0,21.0,59,30.25,10.0,North,3.5,-,N/A,,Clear,10,2013-03-28 09:53:00
6:53 AM,33.1,21.9,64,30.27,10.0,Calm,Calm,-,N/A,,Clear,0,2013-03-28 10:53:00
7:53 AM,32.0,23.0,69,30.29,10.0,NNW,3.5,-,N/A,,Clear,340,2013-03-28 11:53:00
8:53 AM,37.9,26.1,62,30.30,10.0,NW,4.6,-,N/A,,Clear,320,2013-03-28 12:53:00
9:53 AM,44.1,24.1,45,30.31,10.0,Variable,5.8,-,N/A,,Clear,0,2013-03-28 13:53:00
10:53 AM,46.9,21.9,37,30.29,10.0,NW,6.9,-,N/A,,Clear,320,2013-03-28 14:53:00
11:53 AM,50.0,21.0,32,30.29,10.0,NW,6.9,-,N/A,,Clear,310,2013-03-28 15:53:00
12:53 PM,52.0,19.9,28,30.27,10.0,SW,9.2,-,N/A,,Clear,230,2013-03-28 16:53:00
1:53 PM,54.0,21.0,28,30.25,10.0,WSW,10.4,16.1,N/A,,Clear,240,2013-03-28 17:53:00
2:53 PM,57.0,21.0,25,30.22,10.0,Variable,3.5,-,N/A,,Clear,0,2013-03-28 18:53:00
3:53 PM,59.0,21.0,23,30.19,10.0,Variable,4.6,-,N/A,,Clear,0,2013-03-28 19:53:00
4:53 PM,59.0,19.0,21,30.17,10.0,North,8.1,-,N/A,,Clear,350,2013-03-28 20:53:00
5:53 PM,60.1,19.0,20,30.17,10.0,North,8.1,-,N/A,,Clear,360,2013-03-28 21:53:00
6:53 PM,57.9,16.0,19,30.18,10.0,NNE,8.1,17.3,N/A,,Clear,20,2013-03-28 22:53:00
7:53 PM,54.0,16.0,22,30.21,10.0,NNE,8.1,-,N/A,,Clear,20,2013-03-28 23:53:00
8:53 PM,50.0,18.0,28,30.23,10.0,NNE,8.1,-,N/A,,Clear,20,2013-03-29 00:53:00
9:53 PM,48.0,18.0,30,30.25,10.0,NE,4.6,-,N/A,,Clear,40,2013-03-29 01:53:00
10:53 PM,48.0,16.0,28,30.27,10.0,ENE,4.6,-,N/A,,Clear,70,2013-03-29 02:53:00
11:53 PM,43.0,19.0,38,30.27,10.0,Calm,Calm,-,N/A,,Clear,0,2013-03-29 03:53:00